#�ϑ�����,���ϕ���,���ϕ���,�ő啗��,�ő啗����������,�ő�u�ԕ���,�ő�u�ԕ�����������
#(�N����),(m/s)   ,(16����),(m/s)   ,(16����)        ,(m/s)       ,(16����)            
2015/10/25 0:01,4.2,1,4.5,1,10.3,2
2015/10/25 0:02,3.9,1,4.3,1,8.2,16
2015/10/25 0:03,3.7,1,3.8,1,9.4,3
2015/10/25 0:04,3.5,1,3.7,1,6.5,15
2015/10/25 0:05,3.7,1,3.7,1,7.1,2
2015/10/25 0:06,4.1,1,4.1,1,10.1,16
2015/10/25 0:07,4.1,1,4.1,1,10.9,1
2015/10/25 0:08,4.4,1,4.4,16,10,16
2015/10/25 0:09,4.7,1,4.7,1,9.8,1
2015/10/25 0:10,4.7,1,4.7,1,11.9,2
2015/10/25 0:11,4.5,1,4.7,1,10.1,2
2015/10/25 0:12,4.5,1,4.6,1,7.5,1
2015/10/25 0:13,4.7,1,4.7,1,11.7,2
2015/10/25 0:14,5.1,1,5.1,1,10.5,16
2015/10/25 0:15,5.9,1,5.9,1,18.9,1
2015/10/25 0:16,6.1,1,6.1,1,14.2,1
2015/10/25 0:17,6.5,1,6.5,1,15.8,16
2015/10/25 0:18,6.3,1,6.5,1,9,16
2015/10/25 0:19,6.9,1,6.9,1,21,1
2015/10/25 0:20,7.2,1,7.2,1,12.8,16
2015/10/25 0:21,7.1,1,7.3,1,11.8,2
2015/10/25 0:22,7.4,1,7.4,1,8.5,2
2015/10/25 0:23,7.6,1,7.6,1,13.9,1
2015/10/25 0:24,7.5,1,7.6,1,10.6,16
2015/10/25 0:25,7,1,7.4,1,14.8,1
2015/10/25 0:26,6.9,1,7,1,13.9,16
2015/10/25 0:27,6.9,1,6.9,1,15.8,2
2015/10/25 0:28,7.3,1,7.3,1,14.5,1
2015/10/25 0:29,6.7,1,7.3,1,8.6,1
2015/10/25 0:30,6.6,1,6.8,1,12.5,1
2015/10/25 0:31,6.8,1,6.8,1,16,16
2015/10/25 0:32,7.1,1,7.1,1,11.4,1
2015/10/25 0:33,6.9,1,7.1,1,10.5,2
2015/10/25 0:34,7.2,1,7.2,1,14.9,16
2015/10/25 0:35,7.4,1,7.4,1,15.4,2
2015/10/25 0:36,7.6,1,7.6,1,12.1,2
2015/10/25 0:37,7.3,1,7.6,1,12.2,2
2015/10/25 0:38,7.4,1,7.4,1,12.2,15
2015/10/25 0:39,7.2,1,7.5,1,9.5,15
2015/10/25 0:40,6.9,1,7.2,1,6,3
2015/10/25 0:41,6.5,1,6.8,1,6.8,2
2015/10/25 0:42,6.2,1,6.5,1,8.2,1
2015/10/25 0:43,6.1,1,6.2,1,9.8,15
2015/10/25 0:44,5.6,1,6.1,1,8.3,16
2015/10/25 0:45,4.9,1,5.5,1,6.3,15
2015/10/25 0:46,4.2,16,4.9,1,4.7,1
2015/10/25 0:47,4.1,16,4.2,1,9.8,15
2015/10/25 0:48,3.8,16,4,1,9,16
2015/10/25 0:49,3.7,16,3.8,1,5.1,1
2015/10/25 0:50,3.8,16,3.8,1,6.8,14
2015/10/25 0:51,3.5,16,3.7,1,4.1,14
2015/10/25 0:52,3.3,16,3.5,1,5.4,4
2015/10/25 0:53,3,16,3.3,1,6,15
2015/10/25 0:54,3.1,16,3.1,1,6.4,15
2015/10/25 0:55,3,16,3.2,1,5.1,1
2015/10/25 0:56,3.1,16,3.1,16,6.5,16
2015/10/25 0:57,3,1,3.2,16,5.1,3
2015/10/25 0:58,2.6,1,3,16,5.4,16
2015/10/25 0:59,2.7,1,2.7,16,5.5,1
2015/10/25 1:00,2.8,1,2.9,16,8.7,2
2015/10/25 1:01,3,1,3,16,9.2,16
2015/10/25 1:02,3.1,1,3.1,16,7.2,16
2015/10/25 1:03,3.4,1,3.4,1,8.9,1
2015/10/25 1:04,3.4,16,3.4,1,8.2,1
2015/10/25 1:05,3.6,16,3.6,16,9.7,14
2015/10/25 1:06,3.6,16,3.7,16,5.5,1
2015/10/25 1:07,3.7,16,3.7,16,8.5,2
2015/10/25 1:08,3.8,16,3.8,16,5.8,1
2015/10/25 1:09,4.1,16,4.1,16,11.9,16
2015/10/25 1:10,3.9,16,4.1,16,5.5,16
2015/10/25 1:11,3.9,16,4,16,6.3,2
2015/10/25 1:12,3.6,16,3.8,16,2.5,1
2015/10/25 1:13,3.4,16,3.6,16,6.3,16
2015/10/25 1:14,3.5,16,3.5,16,7.5,14
2015/10/25 1:15,3.4,16,3.5,16,9.2,15
2015/10/25 1:16,3.7,16,3.7,16,10.5,14
2015/10/25 1:17,3.6,16,3.7,16,8.5,16
2015/10/25 1:18,3.8,16,3.8,16,11.4,15
2015/10/25 1:19,3.6,16,3.9,16,8.7,15
2015/10/25 1:20,3.7,16,3.7,16,6,16
2015/10/25 1:21,3.6,16,3.7,16,5.8,1
2015/10/25 1:22,4.1,15,4.1,15,12.5,16
2015/10/25 1:23,4.2,15,4.2,15,9,16
2015/10/25 1:24,4.4,15,4.4,15,11,15
2015/10/25 1:25,4.2,16,4.4,15,6.1,16
2015/10/25 1:26,3.9,16,4.2,15,10.7,2
2015/10/25 1:27,4,16,4,15,8.5,2
2015/10/25 1:28,3.7,16,3.9,15,9.3,14
2015/10/25 1:29,3.6,16,3.7,15,5.4,16
2015/10/25 1:30,3.5,16,3.6,15,7.2,2
2015/10/25 1:31,3.8,16,3.8,15,11,1
2015/10/25 1:32,3.6,16,3.9,15,8.6,2
2015/10/25 1:33,3.3,16,3.5,15,3.7,1
2015/10/25 1:34,2.8,1,3.3,16,2.2,2
2015/10/25 1:35,2.8,1,2.8,16,8.1,3
2015/10/25 1:36,2.8,1,2.9,16,5.8,3
2015/10/25 1:37,2.8,1,2.8,16,7.4,1
2015/10/25 1:38,2.7,1,2.8,16,8.1,2
2015/10/25 1:39,2.8,1,2.8,16,6.8,3
2015/10/25 1:40,2.7,1,2.8,16,4.4,1
2015/10/25 1:41,2.7,1,2.7,16,7.5,2
2015/10/25 1:42,2.8,2,2.8,16,8.7,2
2015/10/25 1:43,3.2,2,3.2,16,11.1,1
2015/10/25 1:44,3.4,1,3.4,1,8.9,2
2015/10/25 1:45,3.4,1,3.5,1,5.8,16
2015/10/25 1:46,3.3,1,3.4,1,2.5,1
2015/10/25 1:47,3.1,1,3.3,1,3.7,16
2015/10/25 1:48,3.2,2,3.2,1,4.9,3
2015/10/25 1:49,3,2,3.2,1,4.9,3
2015/10/25 1:50,3.1,2,3.1,1,6,1
2015/10/25 1:51,3,2,3.1,1,6,2
2015/10/25 1:52,2.6,1,3,1,3.1,15
2015/10/25 1:53,2.3,1,2.6,1,5,14
2015/10/25 1:54,2.2,1,2.2,1,8.6,16
2015/10/25 1:55,2.4,1,2.4,1,8.1,15
2015/10/25 1:56,2.8,1,2.8,1,10.8,12
2015/10/25 1:57,3.1,16,3.1,2,8.1,16
2015/10/25 1:58,3.3,16,3.4,16,10.7,16
2015/10/25 1:59,3.8,16,3.8,16,10.7,2
2015/10/25 2:00,3.9,16,4,16,9.3,15
2015/10/25 2:01,3.9,1,3.9,16,6.3,3
2015/10/25 2:02,4.1,1,4.1,1,6.9,16
2015/10/25 2:03,4.1,1,4.1,1,3.5,16
2015/10/25 2:04,3.9,1,4.1,1,3.7,5
2015/10/25 2:05,3.7,1,3.9,1,3.5,5
2015/10/25 2:06,3.5,2,3.7,1,7.8,14
2015/10/25 2:07,3.6,1,3.6,1,10.8,16
2015/10/25 2:08,3.3,1,3.6,1,8.5,15
2015/10/25 2:09,2.9,1,3.3,1,6,15
2015/10/25 2:10,2.9,1,2.9,1,8.1,2
2015/10/25 2:11,3,1,3,1,5,14
2015/10/25 2:12,2.9,1,3,1,6.4,15
2015/10/25 2:13,3,16,3,1,7,15
2015/10/25 2:14,3,1,3.1,1,3.1,5
2015/10/25 2:15,3,16,3,1,3,3
2015/10/25 2:16,2.8,1,3,1,3.8,5
2015/10/25 2:17,2.4,1,2.7,1,6.3,15
2015/10/25 2:18,2.6,1,2.6,1,6.5,15
2015/10/25 2:19,2.6,1,2.6,1,7,16
2015/10/25 2:20,2.6,1,2.6,1,9.4,15
2015/10/25 2:21,2.5,16,2.6,1,5.8,12
2015/10/25 2:22,2.5,16,2.5,1,3.9,16
2015/10/25 2:23,2.4,1,2.4,1,4.5,15
2015/10/25 2:24,2.3,16,2.4,16,1.9,14
2015/10/25 2:25,2.2,16,2.3,16,1.5,14
2015/10/25 2:26,2.2,15,2.3,1,2.9,16
2015/10/25 2:27,2.6,16,2.6,1,12.4,5
2015/10/25 2:28,3,16,3,16,11.5,3
2015/10/25 2:29,3.4,16,3.4,16,14.1,1
2015/10/25 2:30,3.3,16,3.4,16,7,16
2015/10/25 2:31,3.1,1,3.2,16,3.6,4
2015/10/25 2:32,3.1,1,3.1,16,5.8,7
2015/10/25 2:33,3.1,2,3.1,16,5,6
2015/10/25 2:34,3,3,3.1,16,2,4
2015/10/25 2:35,3.1,3,3.1,16,3.9,11
2015/10/25 2:36,3.3,4,3.3,16,6,12
2015/10/25 2:37,3,4,3.3,16,4.7,11
2015/10/25 2:38,2.3,2,2.9,16,2.5,12
2015/10/25 2:39,1.8,6,2.2,16,3.2,4
2015/10/25 2:40,1.8,8,1.8,3,3.9,9
2015/10/25 2:41,1.9,10,1.9,3,6,10
2015/10/25 2:42,1.9,11,2,3,2.1,12
2015/10/25 2:43,2,11,2,3,5.2,10
2015/10/25 2:44,2.1,10,2.1,3,3.8,9
2015/10/25 2:45,2.2,10,2.2,3,7.1,16
2015/10/25 2:46,2.3,11,2.3,4,6.7,2
2015/10/25 2:47,2.8,7,2.8,4,14.7,2
2015/10/25 2:48,3,8,3,7,7.8,16
2015/10/25 2:49,3.1,13,3.1,6,6,2
2015/10/25 2:50,3.1,1,3.1,6,3.5,15
2015/10/25 2:51,3.3,2,3.3,2,9.9,2
2015/10/25 2:52,3.5,2,3.5,2,7.7,3
2015/10/25 2:53,3.4,2,3.5,2,3.6,4
2015/10/25 2:54,3.4,2,3.4,2,4.2,15
2015/10/25 2:55,3.3,1,3.4,2,6,13
2015/10/25 2:56,3.2,1,3.3,2,6.2,14
2015/10/25 2:57,2.7,1,3.2,2,5,2
2015/10/25 2:58,2.5,1,2.7,2,5.1,1
2015/10/25 2:59,2.6,16,2.6,2,7.9,2
2015/10/25 3:00,2.7,1,2.7,2,6.8,3
2015/10/25 3:01,2.4,16,2.7,2,5,2
2015/10/25 3:02,2.6,16,2.6,2,8.1,3
2015/10/25 3:03,2.9,16,2.9,2,10.3,15
2015/10/25 3:04,3,1,3.1,2,9,3
2015/10/25 3:05,2.9,1,3,1,2.6,15
2015/10/25 3:06,2.8,2,2.9,1,3.5,14
2015/10/25 3:07,2.7,2,2.8,1,2,2
2015/10/25 3:08,2.6,2,2.7,1,2.2,4
2015/10/25 3:09,2.4,2,2.6,1,2.9,10
2015/10/25 3:10,2.3,2,2.3,1,5.8,1
2015/10/25 3:11,2.4,1,2.4,1,5.5,16
2015/10/25 3:12,2.4,16,2.5,1,8.2,14
2015/10/25 3:13,2.1,15,2.4,1,4.3,15
2015/10/25 3:14,2.1,15,2.1,1,4.4,15
2015/10/25 3:15,2.2,15,2.2,1,6.1,16
2015/10/25 3:16,2.3,15,2.3,2,4.2,15
2015/10/25 3:17,2.5,15,2.5,2,4.9,1
2015/10/25 3:18,2.8,15,2.8,15,8.6,3
2015/10/25 3:19,3,16,3,16,5.8,3
2015/10/25 3:20,2.8,16,3,16,3.2,5
2015/10/25 3:21,2.7,16,2.8,16,4.7,12
2015/10/25 3:22,2.6,16,2.8,16,6.8,15
2015/10/25 3:23,2.6,1,2.6,16,5,16
2015/10/25 3:24,2.7,1,2.7,16,10,1
2015/10/25 3:25,3,1,3,16,10.8,15
2015/10/25 3:26,3.3,1,3.3,1,9.9,15
2015/10/25 3:27,3.4,16,3.4,1,8.6,13
2015/10/25 3:28,3.2,16,3.4,1,4.9,16
2015/10/25 3:29,3.2,15,3.2,1,5.8,16
2015/10/25 3:30,3.4,15,3.4,1,6.3,16
2015/10/25 3:31,3.4,16,3.5,16,4.9,1
2015/10/25 3:32,3.4,16,3.4,16,5.1,9
2015/10/25 3:33,3.4,15,3.4,16,4.9,3
2015/10/25 3:34,3.6,15,3.6,15,8.9,6
2015/10/25 3:35,3.2,16,3.5,15,5.1,1
2015/10/25 3:36,3,16,3.1,15,5.7,15
2015/10/25 3:37,2.6,16,2.9,15,4.1,15
2015/10/25 3:38,2.6,1,2.6,15,3.1,3
2015/10/25 3:39,2.6,1,2.6,15,10.5,3
2015/10/25 3:40,2.8,1,2.8,15,9.2,16
2015/10/25 3:41,3,1,3,15,10.2,15
2015/10/25 3:42,3.2,1,3.2,15,8.3,16
2015/10/25 3:43,3.4,1,3.4,15,7.2,4
2015/10/25 3:44,3.3,1,3.4,15,8.7,1
2015/10/25 3:45,3.5,1,3.5,1,7.7,3
2015/10/25 3:46,3.5,1,3.5,1,6,3
2015/10/25 3:47,3.6,1,3.6,1,4.3,16
2015/10/25 3:48,3.5,1,3.6,1,1.3,4
2015/10/25 3:49,3.2,1,3.6,1,1.6,8
2015/10/25 3:50,2.8,1,3.2,1,3,12
2015/10/25 3:51,2.7,2,2.8,1,3.7,6
2015/10/25 3:52,2.4,2,2.6,1,3.2,3
2015/10/25 3:53,2.1,3,2.4,1,2,9
2015/10/25 3:54,1.9,4,2.1,1,3.6,6
2015/10/25 3:55,1.8,4,1.9,1,5.5,1
2015/10/25 3:56,1.9,4,1.9,1,7.7,3
2015/10/25 3:57,1.9,5,1.9,1,6.1,3
2015/10/25 3:58,2,5,2,1,3.2,12
2015/10/25 3:59,2.1,4,2.1,1,3.7,12
2015/10/25 4:00,2.2,4,2.2,1,5.6,3
2015/10/25 4:01,2.3,3,2.3,2,4.3,2
2015/10/25 4:02,2.4,2,2.4,2,5.6,15
2015/10/25 4:03,2.5,2,2.5,2,4.4,3
2015/10/25 4:04,2.6,2,2.6,2,3.9,5
2015/10/25 4:05,2.5,2,2.6,2,4.4,14
2015/10/25 4:06,2.5,1,2.5,2,6.1,16
2015/10/25 4:07,2.6,1,2.6,2,9.7,2
2015/10/25 4:08,2.9,1,2.9,1,12.3,2
2015/10/25 4:09,3,1,3,1,6,14
2015/10/25 4:10,2.9,1,3,1,3.7,16
2015/10/25 4:11,2.8,1,2.9,1,6.1,3
2015/10/25 4:12,2.7,1,2.8,1,3.2,8
2015/10/25 4:13,2.6,1,2.7,1,2.6,6
2015/10/25 4:14,2.5,2,2.6,1,2.1,2
2015/10/25 4:15,2.4,2,2.5,1,2,6
2015/10/25 4:16,2.1,2,2.4,1,1.6,2
2015/10/25 4:17,1.7,2,2.1,1,0.6,4
2015/10/25 4:18,1.5,3,1.7,1,6.1,5
2015/10/25 4:19,1.4,4,1.5,1,2.9,8
2015/10/25 4:20,1.4,4,1.4,1,6.8,2
2015/10/25 4:21,1.3,4,1.5,1,6.2,1
2015/10/25 4:22,1.4,3,1.4,1,4.2,14
2015/10/25 4:23,1.5,2,1.5,1,4.9,14
2015/10/25 4:24,1.5,1,1.5,2,3.2,16
2015/10/25 4:25,1.4,1,1.5,2,1.6,13
2015/10/25 4:26,1.5,1,1.5,2,2.1,5
2015/10/25 4:27,1.6,1,1.6,3,3,2
2015/10/25 4:28,1.7,1,1.7,1,3.1,14
2015/10/25 4:29,1.7,16,1.7,1,2.9,13
2015/10/25 4:30,1.6,16,1.7,1,1.4,13
2015/10/25 4:31,1.5,16,1.6,1,2.4,6
2015/10/25 4:32,1.5,16,1.6,1,4.8,1
2015/10/25 4:33,1.3,16,1.4,1,2.6,12
2015/10/25 4:34,1.5,16,1.5,1,5.7,16
2015/10/25 4:35,1.6,16,1.6,1,5,16
2015/10/25 4:36,1.7,16,1.7,1,3.7,3
2015/10/25 4:37,1.6,16,1.7,1,1.8,2
2015/10/25 4:38,1.7,16,1.7,1,5.2,14
2015/10/25 4:39,1.7,16,1.7,16,4.1,14
2015/10/25 4:40,1.8,16,1.8,16,5.1,15
2015/10/25 4:41,2.1,16,2.1,16,9,16
2015/10/25 4:42,2.5,16,2.5,16,11.4,16
2015/10/25 4:43,2.7,16,2.7,16,8.4,2
2015/10/25 4:44,2.8,1,2.8,1,7.2,2
2015/10/25 4:45,2.9,1,2.9,1,6,16
2015/10/25 4:46,2.9,1,3,1,3,3
2015/10/25 4:47,3.2,1,3.2,1,5,1
2015/10/25 4:48,3.2,1,3.3,1,6.9,16
2015/10/25 4:49,3.2,1,3.2,1,5.5,3
2015/10/25 4:50,3.3,1,3.3,1,6.7,3
2015/10/25 4:51,3.2,2,3.3,1,6.7,3
2015/10/25 4:52,2.8,2,3.2,1,3.2,2
2015/10/25 4:53,2.6,2,2.9,1,2.1,1
2015/10/25 4:54,2.3,1,2.6,1,3.2,14
2015/10/25 4:55,2.1,1,2.3,1,3,16
2015/10/25 4:56,2.1,1,2.1,1,3.3,16
2015/10/25 4:57,1.8,1,2,1,1.9,16
2015/10/25 4:58,1.6,1,1.8,1,3,15
2015/10/25 4:59,1.8,16,1.8,1,7.1,15
2015/10/25 5:00,2.1,16,2.1,2,9.5,1
2015/10/25 5:01,2.2,16,2.2,2,7.7,16
2015/10/25 5:02,2.2,16,2.2,2,5.7,15
2015/10/25 5:03,2.7,16,2.7,16,9.4,16
2015/10/25 5:04,3.1,16,3.1,16,8.9,16
2015/10/25 5:05,3.2,16,3.2,16,5.1,16
2015/10/25 5:06,3.2,16,3.2,16,2.2,1
2015/10/25 5:07,3.2,16,3.2,16,3.3,1
2015/10/25 5:08,3.2,16,3.2,16,5.2,1
2015/10/25 5:09,3.2,1,3.3,16,6.3,4
2015/10/25 5:10,3.1,1,3.2,16,8.3,3
2015/10/25 5:11,2.9,1,3.1,16,4.8,16
2015/10/25 5:12,3.1,1,3.1,16,6,3
2015/10/25 5:13,2.9,2,3.1,16,10.5,1
2015/10/25 5:14,2.7,2,2.9,16,5.2,16
2015/10/25 5:15,3,2,3,16,10.8,16
2015/10/25 5:16,3.3,1,3.3,16,6.4,16
2015/10/25 5:17,3.5,1,3.5,1,5.5,16
2015/10/25 5:18,3.6,1,3.6,1,3.7,14
2015/10/25 5:19,3.3,16,3.6,1,2.1,3
2015/10/25 5:20,3.1,16,3.3,1,3.5,3
2015/10/25 5:21,3.1,1,3.1,1,4.1,3
2015/10/25 5:22,3,1,3.1,1,3.9,3
2015/10/25 5:23,2.8,1,3,1,4.9,3
2015/10/25 5:24,2.7,1,2.8,1,3.1,14
2015/10/25 5:25,2.3,16,2.7,1,2.7,12
2015/10/25 5:26,2.1,16,2.3,1,2.9,14
2015/10/25 5:27,2.1,16,2.1,1,6.8,3
2015/10/25 5:28,2.5,1,2.5,1,8.5,2
2015/10/25 5:29,2.8,1,2.8,16,7.4,16
2015/10/25 5:30,2.8,1,2.8,16,5.7,1
2015/10/25 5:31,3,16,3,1,7.9,15
2015/10/25 5:32,3,16,3,1,3.9,3
2015/10/25 5:33,2.9,16,3,1,3.3,15
2015/10/25 5:34,2.9,16,2.9,1,3,14
2015/10/25 5:35,2.8,16,2.9,1,1.6,14
2015/10/25 5:36,2.9,1,2.9,1,6.3,3
2015/10/25 5:37,2.8,1,3,1,7.6,3
2015/10/25 5:38,2.4,1,2.8,1,2.1,2
2015/10/25 5:39,2.3,16,2.3,1,6.2,1
2015/10/25 5:40,2.2,16,2.4,1,5.6,16
2015/10/25 5:41,1.9,16,2.2,16,1.9,16
2015/10/25 5:42,1.8,15,1.9,16,2.2,9
2015/10/25 5:43,1.7,16,1.7,1,1.6,3
2015/10/25 5:44,1.6,16,1.6,1,2.5,4
2015/10/25 5:45,1.7,1,1.7,1,2.5,4
2015/10/25 5:46,1.5,1,1.7,1,2.4,4
2015/10/25 5:47,1.4,16,1.5,1,2.4,11
2015/10/25 5:48,1.4,16,1.4,16,2.2,1
2015/10/25 5:49,1.3,1,1.4,16,3.7,5
2015/10/25 5:50,1.3,2,1.3,16,4.9,4
2015/10/25 5:51,1.4,2,1.4,16,2.5,1
2015/10/25 5:52,1.3,2,1.3,15,1.1,4
2015/10/25 5:53,1.3,2,1.3,1,1.5,15
2015/10/25 5:54,1.4,1,1.4,1,2.5,15
2015/10/25 5:55,1.3,1,1.4,1,2,12
2015/10/25 5:56,1.3,16,1.3,1,3.5,8
2015/10/25 5:57,1.5,1,1.5,1,6.4,14
2015/10/25 5:58,1.8,14,1.8,15,6.4,14
2015/10/25 5:59,1.8,15,1.8,15,2.9,5
2015/10/25 6:00,1.8,12,1.8,15,4.2,2
2015/10/25 6:01,2.1,7,2.1,7,9.1,4
2015/10/25 6:02,2.2,4,2.2,6,3,5
2015/10/25 6:03,2.4,12,2.4,13,5.4,13
2015/10/25 6:04,2.5,5,2.5,9,4.8,5
2015/10/25 6:05,2.8,4,2.8,4,5.7,8
2015/10/25 6:06,3,3,3,3,7.4,1
2015/10/25 6:07,2.9,3,3.1,2,7.1,15
2015/10/25 6:08,2.6,4,2.9,2,3.2,6
2015/10/25 6:09,2.5,3,2.5,2,2.7,14
2015/10/25 6:10,2.5,1,2.6,2,2.9,14
2015/10/25 6:11,2.6,15,2.6,2,8.7,14
2015/10/25 6:12,2.7,14,2.7,2,4.9,13
2015/10/25 6:13,2.5,14,2.7,2,3.5,15
2015/10/25 6:14,2.6,14,2.6,2,4.9,16
2015/10/25 6:15,2.4,14,2.6,2,4.1,1
2015/10/25 6:16,2.3,14,2.4,2,3.9,1
2015/10/25 6:17,2.2,14,2.3,3,1.9,3
2015/10/25 6:18,2.3,14,2.3,14,2.7,11
2015/10/25 6:19,2.3,14,2.4,14,4.2,13
2015/10/25 6:20,2.3,14,2.3,14,3.3,16
2015/10/25 6:21,2,15,2.3,14,4.2,16
2015/10/25 6:22,1.9,14,2,14,2.7,12
2015/10/25 6:23,1.8,14,1.9,14,2.5,13
2015/10/25 6:24,1.7,14,1.8,14,2.1,8
2015/10/25 6:25,1.6,14,1.7,14,4.7,5
2015/10/25 6:26,1.5,13,1.6,14,2.6,1
2015/10/25 6:27,1.8,14,1.8,14,4.3,16
2015/10/25 6:28,1.7,14,1.8,14,2.4,16
2015/10/25 6:29,1.6,14,1.7,14,2.5,9
2015/10/25 6:30,1.6,16,1.7,14,2.5,6
2015/10/25 6:31,1.5,16,1.6,15,1.4,4
2015/10/25 6:32,1.5,16,1.5,14,2.2,14
2015/10/25 6:33,1.6,1,1.6,14,3.9,12
2015/10/25 6:34,1.7,14,1.7,14,4.5,12
2015/10/25 6:35,1.7,14,1.7,14,4.1,9
2015/10/25 6:36,1.6,13,1.7,14,1.4,9
2015/10/25 6:37,1.4,11,1.6,14,2.2,13
2015/10/25 6:38,1.3,10,1.4,14,1.4,7
2015/10/25 6:39,1.3,12,1.3,15,2.5,13
2015/10/25 6:40,1.3,12,1.3,16,2.6,12
2015/10/25 6:41,1.6,12,1.6,16,4.1,10
2015/10/25 6:42,1.6,11,1.6,16,4.8,10
2015/10/25 6:43,1.6,11,1.6,16,3.9,8
2015/10/25 6:44,1.6,11,1.6,14,3.7,11
2015/10/25 6:45,1.8,11,1.8,11,6.3,10
2015/10/25 6:46,2.2,11,2.2,11,8.7,14
2015/10/25 6:47,2.4,12,2.4,11,6.9,15
2015/10/25 6:48,2.4,12,2.4,11,1.6,16
2015/10/25 6:49,2.5,13,2.5,12,5,16
2015/10/25 6:50,2.6,13,2.6,13,4.5,16
2015/10/25 6:51,2.5,14,2.6,13,2.2,2
2015/10/25 6:52,2.4,15,2.5,13,3,16
2015/10/25 6:53,2.4,16,2.4,13,4.8,5
2015/10/25 6:54,2.3,1,2.4,13,3.2,4
2015/10/25 6:55,2.2,1,2.3,13,5.4,9
2015/10/25 6:56,2.1,2,2.2,13,5.6,9
2015/10/25 6:57,2.2,1,2.2,13,7.8,12
2015/10/25 6:58,2.3,1,2.3,13,5.7,1
2015/10/25 6:59,2.3,1,2.4,13,6.5,1
2015/10/25 7:00,2.4,15,2.4,13,5.4,13
2015/10/25 7:01,2.5,14,2.5,15,4.5,16
2015/10/25 7:02,2.6,13,2.6,13,4.1,14
2015/10/25 7:03,2.5,14,2.6,13,3.1,2
2015/10/25 7:04,2.4,13,2.5,13,1.4,6
2015/10/25 7:05,2.6,13,2.6,13,6.8,11
2015/10/25 7:06,2.6,14,2.6,13,6.3,11
2015/10/25 7:07,2.4,14,2.6,13,7.4,15
2015/10/25 7:08,2.2,14,2.4,13,1.9,4
2015/10/25 7:09,2.1,13,2.2,13,1.9,9
2015/10/25 7:10,2,11,2.1,13,4.4,6
2015/10/25 7:11,1.9,9,2,13,5.4,6
2015/10/25 7:12,1.8,8,1.9,14,2.9,13
2015/10/25 7:13,1.9,8,1.9,13,5,6
2015/10/25 7:14,2.1,7,2.1,13,4.7,5
2015/10/25 7:15,1.8,7,2.1,13,2.6,10
2015/10/25 7:16,1.8,7,1.9,14,4.5,9
2015/10/25 7:17,1.8,8,1.8,14,5.5,9
2015/10/25 7:18,1.9,8,1.9,14,3.6,8
2015/10/25 7:19,2,8,2,13,3.3,8
2015/10/25 7:20,2,8,2.1,7,3.1,6
2015/10/25 7:21,1.9,8,2,7,1.4,13
2015/10/25 7:22,1.9,9,1.9,7,1.3,10
2015/10/25 7:23,1.8,9,1.9,7,3.6,8
2015/10/25 7:24,1.9,10,1.9,7,6.2,10
2015/10/25 7:25,2.1,9,2.1,8,5.2,11
2015/10/25 7:26,2.1,10,2.1,8,4.4,9
2015/10/25 7:27,2.1,10,2.1,8,5.1,9
2015/10/25 7:28,2,10,2.1,8,2.9,2
2015/10/25 7:29,1.9,11,1.9,8,3.2,16
2015/10/25 7:30,2,12,2,10,4.4,16
2015/10/25 7:31,2.1,12,2.1,10,2.2,15
2015/10/25 7:32,2.3,13,2.3,13,5.5,16
2015/10/25 7:33,2.5,14,2.5,14,8.6,15
2015/10/25 7:34,2.6,15,2.7,14,9.3,15
2015/10/25 7:35,2.4,15,2.6,14,2.5,15
2015/10/25 7:36,2.3,15,2.4,14,1.4,9
2015/10/25 7:37,2.3,15,2.3,14,5.4,2
2015/10/25 7:38,2.4,15,2.4,14,3.8,16
2015/10/25 7:39,2.4,15,2.4,14,2,3
2015/10/25 7:40,2.3,15,2.4,14,3,5
2015/10/25 7:41,2.5,16,2.5,14,7.7,5
2015/10/25 7:42,2.8,16,2.8,16,10.3,4
2015/10/25 7:43,2.8,1,2.9,16,9.1,5
2015/10/25 7:44,2.5,2,2.8,16,3.2,2
2015/10/25 7:45,2.7,2,2.7,16,3.8,4
2015/10/25 7:46,2.7,2,2.7,16,1.9,2
2015/10/25 7:47,2.5,2,2.7,16,2,15
2015/10/25 7:48,2.4,3,2.5,16,3.3,8
2015/10/25 7:49,2.4,4,2.4,16,3,10
2015/10/25 7:50,2.5,3,2.5,16,2.9,12
2015/10/25 7:51,2.3,2,2.4,16,4.4,15
2015/10/25 7:52,1.9,2,2.2,16,3.6,16
2015/10/25 7:53,1.8,2,1.9,1,5.6,6
2015/10/25 7:54,1.8,3,1.8,2,3.7,6
2015/10/25 7:55,1.8,4,1.8,2,3.2,5
2015/10/25 7:56,1.9,5,1.9,2,3.6,11
2015/10/25 7:57,1.9,5,1.9,2,2.5,1
2015/10/25 7:58,1.9,4,1.9,4,3.1,7
2015/10/25 7:59,2,5,2,4,3.1,7
2015/10/25 8:00,2.1,5,2.1,3,4.4,7
2015/10/25 8:01,2.1,6,2.2,2,6,6
2015/10/25 8:02,2.2,7,2.2,6,5.5,9
2015/10/25 8:03,2.2,8,2.2,6,6.2,13
2015/10/25 8:04,2.2,9,2.3,8,6.2,13
2015/10/25 8:05,2.2,10,2.2,8,3.7,16
2015/10/25 8:06,2.2,10,2.2,8,3.6,7
2015/10/25 8:07,2.2,10,2.3,8,3.5,10
2015/10/25 8:08,2.3,9,2.3,8,3.5,4
2015/10/25 8:09,2.4,8,2.5,8,4.7,2
2015/10/25 8:10,2.3,6,2.4,8,3.5,4
2015/10/25 8:11,2.1,5,2.3,8,0.9,4
2015/10/25 8:12,2.1,3,2.1,8,6.4,2
2015/10/25 8:13,2,3,2.2,8,4.2,2
2015/10/25 8:14,1.9,3,2,8,3,16
2015/10/25 8:15,1.9,3,1.9,8,2.9,15
2015/10/25 8:16,1.9,3,1.9,8,3,13
2015/10/25 8:17,2,2,2,8,5.5,13
2015/10/25 8:18,1.9,1,2,8,4.9,12
2015/10/25 8:19,1.8,16,1.9,8,4.9,16
2015/10/25 8:20,2,16,2,6,5,16
2015/10/25 8:21,2,16,2,3,2.2,2
2015/10/25 8:22,1.8,15,2,3,2.9,8
2015/10/25 8:23,1.7,15,1.7,3,3.5,8
2015/10/25 8:24,1.7,15,1.8,2,2.6,4
2015/10/25 8:25,1.6,15,1.7,2,1.3,7
2015/10/25 8:26,1.7,15,1.7,2,6.7,8
2015/10/25 8:27,1.7,1,1.8,2,4.8,16
2015/10/25 8:28,1.8,1,1.8,16,4.7,1
2015/10/25 8:29,2,1,2,16,8.9,13
2015/10/25 8:30,2.2,16,2.2,16,8.1,16
2015/10/25 8:31,2.6,15,2.6,15,8.7,14
2015/10/25 8:32,3,15,3,15,9.7,16
2015/10/25 8:33,3.2,15,3.2,15,7.2,16
2015/10/25 8:34,3.2,15,3.2,15,5,14
2015/10/25 8:35,3.5,15,3.5,15,7.1,16
2015/10/25 8:36,3.4,15,3.6,15,5.1,16
2015/10/25 8:37,3.6,15,3.6,15,6.7,16
2015/10/25 8:38,3.7,15,3.7,15,6.1,16
2015/10/25 8:39,3.6,16,3.7,15,5.1,15
2015/10/25 8:40,3.3,16,3.5,15,5.8,4
2015/10/25 8:41,3.2,1,3.3,15,7.1,4
2015/10/25 8:42,3,1,3.2,15,6.8,5
2015/10/25 8:43,2.7,1,2.9,15,3.3,12
2015/10/25 8:44,2.8,16,2.8,15,3.8,12
2015/10/25 8:45,2.6,16,2.8,15,3.7,8
2015/10/25 8:46,2.5,1,2.6,15,5.6,8
2015/10/25 8:47,2.4,4,2.6,15,4.9,9
2015/10/25 8:48,2.3,5,2.4,15,5.8,6
2015/10/25 8:49,2.5,6,2.5,16,7.5,3
2015/10/25 8:50,2.6,5,2.7,16,8.4,3
2015/10/25 8:51,2.5,6,2.6,1,3.2,6
2015/10/25 8:52,2.5,5,2.5,1,4.8,4
2015/10/25 8:53,2.7,5,2.7,1,5.4,2
2015/10/25 8:54,2.7,4,2.7,16,3.7,15
2015/10/25 8:55,2.8,4,2.8,4,3.7,11
2015/10/25 8:56,2.7,3,2.9,4,3.2,10
2015/10/25 8:57,2.7,3,2.7,4,3.1,4
2015/10/25 8:58,2.5,3,2.7,4,2.7,4
2015/10/25 8:59,2.2,3,2.5,4,4.2,3
2015/10/25 9:00,1.9,2,2.2,4,1.9,4
2015/10/25 9:01,1.9,1,2,4,2,10
2015/10/25 9:02,1.7,1,1.9,4,1.3,13
2015/10/25 9:03,1.4,2,1.7,4,2.5,12
2015/10/25 9:04,1.5,6,1.5,4,3.3,10
2015/10/25 9:05,1.5,2,1.5,4,5.6,14
2015/10/25 9:06,1.6,1,1.6,3,5.8,15
2015/10/25 9:07,1.6,15,1.6,3,3.3,8
2015/10/25 9:08,1.7,14,1.7,3,9.2,16
2015/10/25 9:09,2,14,2,3,8.2,14
2015/10/25 9:10,2.3,14,2.3,14,6.8,15
2015/10/25 9:11,2.7,15,2.7,15,9.3,16
2015/10/25 9:12,3,15,3,15,8.3,15
2015/10/25 9:13,3.1,15,3.1,15,3.6,15
2015/10/25 9:14,3.2,15,3.2,15,5.7,12
2015/10/25 9:15,3.1,15,3.2,15,5.1,12
2015/10/25 9:16,3.1,15,3.1,15,3.5,5
2015/10/25 9:17,3,15,3.1,15,2.2,4
2015/10/25 9:18,2.9,15,3.1,15,1.8,5
2015/10/25 9:19,2.5,15,2.9,15,2.1,15
2015/10/25 9:20,2.3,16,2.5,15,1.9,3
2015/10/25 9:21,1.9,2,2.3,15,3.6,6
2015/10/25 9:22,1.8,5,1.9,15,5.1,6
2015/10/25 9:23,1.8,5,1.8,15,3.2,6
2015/10/25 9:24,1.7,6,1.8,15,2.4,5
2015/10/25 9:25,1.7,5,1.7,15,4.9,10
2015/10/25 9:26,1.9,6,1.9,15,7.9,10
2015/10/25 9:27,2.3,6,2.3,15,9.3,14
2015/10/25 9:28,2.6,4,2.6,15,8.1,1
2015/10/25 9:29,2.9,4,2.9,4,8.5,16
2015/10/25 9:30,3.1,7,3.1,7,4.7,13
2015/10/25 9:31,3.1,11,3.1,7,4.7,10
2015/10/25 9:32,3.2,12,3.2,12,4.1,11
2015/10/25 9:33,3.2,11,3.2,12,4.1,10
2015/10/25 9:34,3.2,11,3.2,12,2.7,8
2015/10/25 9:35,3,11,3.1,12,2.1,7
2015/10/25 9:36,2.7,10,3,12,2.5,4
2015/10/25 9:37,2.6,8,2.7,12,5.1,4
2015/10/25 9:38,2.6,8,2.6,12,7.7,4
2015/10/25 9:39,2.8,7,2.8,12,10.1,7
2015/10/25 9:40,2.9,6,3,12,12.7,5
2015/10/25 9:41,2.8,6,2.9,12,3.9,1
2015/10/25 9:42,2.7,5,2.8,12,3.6,3
2015/10/25 9:43,3.1,5,3.1,11,14.8,1
2015/10/25 9:44,3.4,4,3.4,4,12.5,1
2015/10/25 9:45,3.6,4,3.6,4,5.2,15
2015/10/25 9:46,3.7,3,3.7,4,5.1,15
2015/10/25 9:47,3.9,2,3.9,2,8.4,16
2015/10/25 9:48,3.6,1,3.9,2,5,15
2015/10/25 9:49,3.3,16,3.6,2,3.5,15
2015/10/25 9:50,3.1,15,3.2,2,4.2,12
2015/10/25 9:51,3.2,15,3.2,2,4.2,12
2015/10/25 9:52,3.4,14,3.4,2,6.1,13
2015/10/25 9:53,3.1,14,3.4,2,6.3,14
2015/10/25 9:54,2.9,14,3.1,2,6.9,15
2015/10/25 9:55,3,14,3,2,6.8,13
2015/10/25 9:56,3,14,3.1,2,6.5,13
2015/10/25 9:57,2.7,14,2.9,2,4.2,15
2015/10/25 9:58,2.6,14,2.7,1,3.1,15
2015/10/25 9:59,2.6,14,2.6,14,2.4,16
2015/10/25 10:00,2.5,14,2.6,14,2.9,16
2015/10/25 10:01,2.3,15,2.5,14,2.1,9
2015/10/25 10:02,2.1,15,2.3,14,2.7,12
2015/10/25 10:03,1.8,15,2.1,14,1.5,12
2015/10/25 10:04,1.8,15,1.8,14,4.9,12
2015/10/25 10:05,1.7,15,1.8,14,5.1,15
2015/10/25 10:06,1.6,15,1.7,14,4.1,2
2015/10/25 10:07,1.4,15,1.6,14,2.6,1
2015/10/25 10:08,1.4,16,1.4,14,1.8,1
2015/10/25 10:09,1.4,16,1.4,14,2.1,3
2015/10/25 10:10,1.4,15,1.4,14,3,10
2015/10/25 10:11,1.6,14,1.6,15,5.1,10
2015/10/25 10:12,1.6,13,1.6,15,3.1,7
2015/10/25 10:13,1.7,12,1.7,15,6.3,10
2015/10/25 10:14,1.7,12,1.8,15,4.4,8
2015/10/25 10:15,1.6,11,1.7,12,2.4,2
2015/10/25 10:16,1.7,10,1.7,12,3.2,7
2015/10/25 10:17,1.7,10,1.7,12,2.4,11
2015/10/25 10:18,1.7,10,1.7,12,2.1,11
2015/10/25 10:19,1.7,11,1.7,12,4.5,14
2015/10/25 10:20,1.7,12,1.8,12,3.2,16
2015/10/25 10:21,1.8,13,1.8,12,8.2,15
2015/10/25 10:22,2.2,14,2.2,14,7.8,16
2015/10/25 10:23,2.1,15,2.2,14,2.7,15
2015/10/25 10:24,2.1,16,2.1,14,4.4,5
2015/10/25 10:25,2.1,15,2.1,14,2.7,13
2015/10/25 10:26,2,15,2.1,14,3,13
2015/10/25 10:27,2.1,15,2.1,14,3.8,8
2015/10/25 10:28,2.1,15,2.1,14,3.6,7
2015/10/25 10:29,2,15,2.1,14,3.9,8
2015/10/25 10:30,2,14,2,14,3.3,9
2015/10/25 10:31,1.9,12,2,14,4.2,8
2015/10/25 10:32,1.7,6,1.9,14,5.6,5
2015/10/25 10:33,1.6,6,1.7,15,1.4,4
2015/10/25 10:34,1.5,7,1.6,16,3.3,7
2015/10/25 10:35,1.6,7,1.6,15,4.7,7
2015/10/25 10:36,1.7,7,1.7,15,5.1,6
2015/10/25 10:37,1.7,7,1.7,14,2.4,9
2015/10/25 10:38,1.6,6,1.7,15,1.8,3
2015/10/25 10:39,1.6,6,1.6,15,3.7,8
2015/10/25 10:40,1.7,6,1.8,14,4.8,8
2015/10/25 10:41,1.6,6,1.7,12,2.2,6
2015/10/25 10:42,1.5,6,1.6,6,2.9,6
2015/10/25 10:43,1.5,7,1.5,6,2.4,8
2015/10/25 10:44,1.6,6,1.6,6,1.9,1
2015/10/25 10:45,1.4,6,1.5,6,1.5,10
2015/10/25 10:46,1.2,6,1.4,6,1.4,5
2015/10/25 10:47,1.5,6,1.5,6,6.3,14
2015/10/25 10:48,1.7,7,1.7,6,4.5,14
2015/10/25 10:49,1.8,7,1.9,7,4.4,4
2015/10/25 10:50,1.8,8,1.8,7,5.8,11
2015/10/25 10:51,1.8,11,1.9,7,2,12
2015/10/25 10:52,1.9,14,1.9,7,4.9,5
2015/10/25 10:53,2,16,2,15,4.7,4
2015/10/25 10:54,2.3,6,2.3,5,6.4,5
2015/10/25 10:55,2.3,2,2.3,5,2.9,1
2015/10/25 10:56,2.4,2,2.4,2,3.7,1
2015/10/25 10:57,2.2,3,2.4,2,3.1,6
2015/10/25 10:58,2,5,2.2,2,2.7,8
2015/10/25 10:59,2.1,4,2.1,2,6.8,4
2015/10/25 11:00,1.9,4,2.1,2,3.7,4
2015/10/25 11:01,2.1,4,2.1,2,7.4,16